Jackson, MI

7:01 PM EST on December 14, 2019 (GMT -0500)
Jackson County-Reynolds

Weather History for KJXN - November, 2019

Change the Weather History Date:

Wednesday, November 13, 2019

  Actual Average Record
Temperature  
Mean Temperature 14 °F 41 °F  
Max Temperature 23 °F 49 °F 70 °F (1989)
Min Temperature 4 °F 33 °F 8 °F (1986)
Degree Days  
Heating Degree Days 52 24  
Month to date heating degree days 429 283  
Since 1 July heating degree days 918 931  
Cooling Degree Days 0 0  
Month to date cooling degree days 0 0  
Year to date cooling degree days 663 592  
Moisture  
Dew Point 7 °F    
Average Humidity 71    
Maximum Humidity 88    
Minimum Humidity 52    
Precipitation  
Precipitation 0.00 in 0.09 in 1.38 in (1959)
Month to date precipitation 0.60 1.14  
Year to date precipitation 32.51 28.17  
Sea Level Pressure  
Sea Level Pressure 30.30 in    
Wind  
Wind Speed 5 mph ()    
Max Wind Speed 21 mph    
Max Gust Speed 28 mph    
Visibility 10.0 miles    
Events      
T = Trace of Precipitation, MM = Missing Value Source: Averaged Metar Reports

Daily Weather History Graph

Daily Weather History Graph

Search for Another Location

Airport or City:

Astronomy

Nov. 13, 2019 Rise Set
Actual Time 7:25 AM EST 5:18 PM EST
Civil Twilight 6:55 AM EST 5:48 PM EST
Nautical Twilight 6:21 AM EST 6:21 PM EST
Astronomical Twilight 5:48 AM EST 6:54 PM EST
Moon 6:20 PM EST (11/13) 8:18 AM EST (11/13)
Length of Visible Light 10h 52m
Length of Day
9h 52m
Full, 99% of the Moon is Illuminated
Nov 13
Full
Nov 19
Last Quarter
Nov 26
New
Dec 4
First Quarter
Dec 12
Full

Hourly Weather History & Observations

Time (EST) Temp. Windchill Dew Point Humidity Pressure Visibility Wind Dir Wind Speed Gust Speed Precip Events Conditions
12:56 AM 8.1 °F - 3.9 °F 83% 30.41 in 10.0 mi Calm Calm - N/A   Partly Cloudy
1:09 AM 9.0 °F - 5.0 °F 84% 30.35 in 10.0 mi Calm Calm - N/A   Mostly Cloudy
1:28 AM 9.0 °F - 5.0 °F 84% 30.35 in 10.0 mi Calm Calm - N/A   Overcast
1:56 AM 7.0 °F -3.3 °F 3.9 °F 87% 30.41 in 10.0 mi SSW 5.8 mph - N/A   Scattered Clouds
2:56 AM 7.0 °F - 1.9 °F 80% 30.41 in 10.0 mi Calm Calm - N/A   Clear
3:56 AM 8.1 °F - 1.9 °F 76% 30.41 in 10.0 mi Calm Calm - N/A   Clear
4:56 AM 6.1 °F - 1.0 °F 80% 30.42 in 10.0 mi Calm Calm - N/A   Clear
5:56 AM 7.0 °F 0.1 °F 1.9 °F 80% 30.39 in 10.0 mi SSW 3.5 mph - N/A   Clear
6:56 AM 9.0 °F - 3.9 °F 80% 30.38 in 10.0 mi Calm Calm - N/A   Mostly Cloudy
7:56 AM 10.0 °F 1.8 °F 3.9 °F 76% 30.39 in 10.0 mi South 4.6 mph - N/A   Mostly Cloudy
8:56 AM 12.9 °F 5.2 °F 6.1 °F 74% 30.39 in 10.0 mi South 4.6 mph - N/A   Scattered Clouds
9:56 AM 16.0 °F 5.3 °F 6.1 °F 65% 30.38 in 10.0 mi SSE 8.1 mph - N/A   Mostly Cloudy
10:56 AM 18.0 °F 3.1 °F 3.0 °F 52% 30.37 in 10.0 mi South 16.1 mph - N/A   Overcast
11:56 AM 18.0 °F 5.4 °F 5.0 °F 57% 30.37 in 10.0 mi South 11.5 mph 20.7 mph N/A   Mostly Cloudy
12:56 PM 19.0 °F 6.1 °F 7.0 °F 59% 30.32 in 10.0 mi SSE 12.7 mph - N/A   Mostly Cloudy
1:56 PM 19.9 °F 6.2 °F 8.1 °F 60% 30.29 in 10.0 mi SSE 15.0 mph - N/A   Mostly Cloudy
2:56 PM 21.0 °F 8.1 °F 7.0 °F 55% 30.25 in 10.0 mi SSE 13.8 mph - N/A   Scattered Clouds
3:56 PM 19.9 °F 6.7 °F 8.1 °F 60% 30.22 in 10.0 mi SE 13.8 mph - N/A   Clear
4:56 PM 19.9 °F 6.2 °F 10.0 °F 65% 30.20 in 10.0 mi SSE 15.0 mph 24.2 mph N/A   Clear
5:56 PM 19.9 °F 7.9 °F 10.9 °F 68% 30.17 in 10.0 mi SSE 11.5 mph 23.0 mph N/A   Clear
6:56 PM 19.9 °F 6.2 °F 12.0 °F 71% 30.17 in 10.0 mi SSE 15.0 mph 23.0 mph N/A   Clear
7:56 PM 21.0 °F 7.6 °F 12.0 °F 68% 30.16 in 10.0 mi SSE 15.0 mph 27.6 mph N/A   Scattered Clouds
8:56 PM 21.9 °F 9.8 °F 12.9 °F 68% 30.16 in 10.0 mi South 12.7 mph - N/A   Mostly Cloudy
9:56 PM 23.0 °F 12.4 °F 14.0 °F 68% 30.15 in 10.0 mi South 10.4 mph - N/A   Overcast
10:56 PM 23.0 °F 14.7 °F 15.1 °F 72% 30.15 in 10.0 mi South 6.9 mph - N/A   Overcast
11:56 PM 23.0 °F 15.8 °F 16.0 °F 74% 30.14 in 10.0 mi South 5.8 mph - N/A   Overcast